JA6CFI-13 Weather Reports


time (UTC)temp
C
wind
direction
speed
KPH
gust
KPH
rain 1hr
cm
rain 24hr
cm
rain mn
cm
humidity
%
barometer
mb
20260509091819 20 330 4.8 17.7 0.00 0.00 0.00 49 1017.8
20260509091202 20 20 6.4 14.5 0.00 0.00 0.00 45 1017.9
20260509090520 20 343 1.6 6.4 0.00 0.00 0.00 45 1017.9
20260509085221 21 346 4.8 8.0 0.00 0.00 0.00 44 1017.8
20260509083920 20 15 6.4 9.7 0.00 0.00 0.00 40 1017.7
20260509082619 21 328 4.8 11.3 0.00 0.00 0.00 43 1017.6
20260509081319 20 324 9.7 9.7 0.00 0.00 0.00 45 1017.6
20260509080019 21 15 6.4 16.1 0.00 0.00 0.00 44 1017.4
20260509074720 21 3 11.3 16.1 0.00 0.00 0.00 43 1017.4
20260509074201 21 335 6.4 12.9 0.00 0.00 0.00 44 1017.2
20260509073421 21 18 14.5 19.3 0.00 0.00 0.00 43 1017.2
20260509072120 21 337 9.7 12.9 0.00 0.00 0.00 40 1017.2
20260509070819 21 314 8.0 17.7 0.00 0.00 0.00 41 1017.1
20260509065519 22 1 9.7 16.1 0.00 0.00 0.00 42 1017.2
20260509064202 22 339 6.4 14.5 0.00 0.00 0.00 42 1017.2
20260509062919 21 23 11.3 17.7 0.00 0.00 0.00 44 1017.2
20260509061621 22 7 9.7 17.7 0.00 0.00 0.00 43 1017.4
20260509061202 22 11 6.4 16.1 0.00 0.00 0.00 44 1017.4
20260509060319 22 329 9.7 16.1 0.00 0.00 0.00 43 1017.4
20260509055020 22 303 6.4 16.1 0.00 0.00 0.00 41 1017.4
20260509054201 22 3 6.4 16.1 0.00 0.00 0.00 41 1017.5
20260509053720 22 344 4.8 16.1 0.00 0.00 0.00 40 1017.6
20260509052419 22 310 8.0 16.1 0.00 0.00 0.00 41 1017.6
20260509051202 22 331 8.0 16.1 0.00 0.00 0.00 40 1017.8
20260509051121 22 303 8.0 9.7 0.00 0.00 0.00 40 1017.8
20260509045820 22 357 6.4 11.3 0.00 0.00 0.00 40 1017.9
20260509044520 22 331 12.9 19.3 0.00 0.00 0.00 39 1017.9
20260509043219 23 307 8.0 16.1 0.00 0.00 0.00 39 1018.0
20260509041921 23 338 8.0 12.9 0.00 0.00 0.00 39 1018.0
20260509040620 22 339 11.3 19.3 0.00 0.00 0.00 38 1018.0
20260509035319 22 14 6.4 11.3 0.00 0.00 0.00 37 1018.0
20260509034202 23 322 11.3 17.7 0.00 0.00 0.00 37 1018.0
20260509034019 23 325 8.0 17.7 0.00 0.00 0.00 37 1018.0
20260509032720 22 344 8.0 11.3 0.00 0.00 0.00 36 1018.1
20260509031420 23 268 1.6 9.7 0.00 0.00 0.00 35 1018.1
20260509030121 22 294 1.6 3.2 0.00 0.00 0.00 37 1018.4
20260509024820 22 302 4.8 9.7 0.00 0.00 0.00 37 1018.5
20260509023519 23 311 9.7 19.3 0.00 0.00 0.00 35 1018.6
20260509022219 23 311 3.2 11.3 0.00 0.00 0.00 36 1018.6
20260509020920 22 313 4.8 12.9 0.00 0.00 0.00 38 1018.9
20260509015620 22 39 8.0 12.9 0.00 0.00 0.00 37 1018.9
20260509014320 21 289 3.2 3.2 0.00 0.00 0.00 36 1019.0
20260509013019 21 260 1.6 4.8 0.00 0.00 0.00 40 1019.1
20260509011720 21 42 6.4 8.0 0.00 0.00 0.00 40 1019.2
20260509011201 21 12 6.4 8.0 0.00 0.00 0.00 39 1019.2
20260509010420 21 356 6.4 9.7 0.00 0.00 0.00 40 1019.3
20260509005119 20 5 8.0 9.7 0.00 0.00 0.00 42 1019.2
20260509003821 21 355 4.8 11.3 0.00 0.00 0.00 42 1019.2
20260509002520 20 36 3.2 6.4 0.00 0.00 0.00 48 1019.3
20260509001222 21 92 3.2 8.0 0.00 0.00 0.00 52 1019.2
20260508235923 20 167 1.6 3.2 0.00 0.00 0.00 56 1019.2
20260508234622 19 153 1.6 3.2 0.00 0.00 0.00 60 1019.3
20260508233322 18 197 1.6 4.8 0.00 0.00 0.00 62 1019.4
20260508232023 18 175 1.6 6.4 0.00 0.00 0.00 63 1019.5
20260508230723 17 231 3.2 8.0 0.00 0.00 0.00 65 1019.5
20260508225422 17 201 1.6 3.2 0.00 0.00 0.00 68 1019.5
20260508224124 16 187 3.2 6.4 0.00 0.00 0.00 69 1019.4
20260508222824 15 195 3.2 6.4 0.00 0.00 0.00 71 1019.3
20260508221523 15 186 3.2 4.8 0.00 0.00 0.00 72 1019.3
20260508220223 15 176 1.6 4.8 0.00 0.00 0.00 74 1019.2
20260508214922 14 178 1.6 6.4 0.00 0.00 0.00 76 1019.1
20260508213624 13 173 0.0 3.2 0.00 0.00 0.00 79 1018.9
20260508212323 12 164 0.0 1.6 0.00 0.00 0.00 83 1018.8
20260508211022 12 163 1.6 4.8 0.00 0.00 0.00 84 1018.6
20260508205722 12 217 0.0 1.6 0.00 0.00 0.00 84 1018.3
20260508204422 12 223 0.0 1.6 0.00 0.00 0.00 83 1018.2
20260508203123 12 157 1.6 3.2 0.00 0.00 0.00 82 1018.1
20260508201823 12 157 0.0 0.0 0.00 0.00 0.00 81 1018.0
20260508200522 13 155 1.6 6.4 0.00 0.00 0.00 79 1018.0
20260508195222 13 355 0.0 0.0 0.00 0.00 0.00 79 1018.0
20260508193923 13 355 0.0 0.0 0.00 0.00 0.00 79 1017.9
20260508192623 13 355 0.0 0.0 0.00 0.00 0.00 78 1017.8
20260508191323 13 355 0.0 0.0 0.00 0.00 0.00 77 1017.8
20260508190022 13 355 0.0 0.0 0.00 0.00 0.00 77 1017.7
20260508184722 13 355 0.0 0.0 0.00 0.00 0.00 77 1017.6
20260508183423 13 355 0.0 0.0 0.00 0.00 0.00 77 1017.5
20260508182123 13 355 0.0 0.0 0.00 0.00 0.00 78 1017.3
20260508180822 13 355 1.6 1.6 0.00 0.00 0.00 80 1017.2
20260508175522 13 355 0.0 0.0 0.00 0.00 0.00 80 1017.1
20260508174207 13 355 0.0 0.0 0.00 0.00 0.00 80 1016.9
20260508172923 13 355 0.0 1.6 0.00 0.00 0.00 79 1016.8
20260508171622 13 355 0.0 0.0 0.00 0.00 0.00 77 1016.8
20260508170323 13 355 0.0 0.0 0.00 0.00 0.00 76 1016.9
20260508165023 14 355 0.0 0.0 0.00 0.00 0.00 75 1016.7
20260508164206 14 33 1.6 6.4 0.00 0.00 0.00 75 1016.6
20260508163723 14 203 0.0 0.0 0.00 0.00 0.00 75 1016.6
20260508162422 14 202 0.0 0.0 0.00 0.00 0.00 73 1016.5
20260508161124 14 324 0.0 0.0 0.00 0.00 0.00 72 1016.3
20260508155824 14 192 3.2 4.8 0.00 0.00 0.00 72 1016.3
20260508154523 15 217 1.6 3.2 0.00 0.00 0.00 70 1016.3
20260508153223 15 184 1.6 4.8 0.00 0.00 0.00 70 1016.3
20260508151922 15 191 3.2 4.8 0.00 0.00 0.00 69 1016.3
20260508150622 15 189 1.6 8.0 0.00 0.00 0.00 69 1016.1
20260508145322 15 212 1.6 3.2 0.00 0.00 0.00 68 1016.0
20260508144205 15 212 0.0 1.6 0.00 0.00 0.00 67 1016.0
20260508144023 15 212 0.0 0.0 0.00 0.00 0.00 67 1016.0
20260508142723 15 170 1.6 3.2 0.00 0.00 0.00 66 1015.8
20260508141423 16 202 3.2 4.8 0.00 0.00 0.00 66 1015.7
20260508141204 16 196 1.6 1.6 0.00 0.00 0.00 66 1015.7
20260508140122 15 200 3.2 4.8 0.00 0.00 0.00 66 1015.8
20260508134823 15 207 1.6 1.6 0.00 0.00 0.00 65 1015.7
20260508134205 15 192 1.6 1.6 0.00 0.00 0.00 65 1015.6
20260508133522 15 187 3.2 6.4 0.00 0.00 0.00 65 1015.4
20260508132222 15 103 0.0 0.0 0.00 0.00 0.00 63 1015.6
20260508131205 16 186 1.6 3.2 0.00 0.00 0.00 62 1015.6
20260508130923 16 143 0.0 0.0 0.00 0.00 0.00 62 1015.5
20260508125623 16 211 0.0 1.6 0.00 0.00 0.00 62 1015.4
20260508124323 16 211 0.0 4.8 0.00 0.00 0.00 63 1015.3
20260508124204 16 211 3.2 6.4 0.00 0.00 0.00 63 1015.4
20260508123022 16 209 1.6 6.4 0.00 0.00 0.00 62 1015.4
20260508121722 16 214 1.6 6.4 0.00 0.00 0.00 61 1015.2
20260508121205 16 240 3.2 6.4 0.00 0.00 0.00 62 1015.2
20260508120423 16 184 3.2 8.0 0.00 0.00 0.00 62 1015.1
20260508115123 16 205 0.0 1.6 0.00 0.00 0.00 60 1015.1
20260508114204 16 205 1.6 6.4 0.00 0.00 0.00 60 1014.9
20260508113822 16 205 0.0 0.0 0.00 0.00 0.00 59 1014.9
20260508112522 16 205 1.6 4.8 0.00 0.00 0.00 59 1014.7
20260508111205 17 207 1.6 4.8 0.00 0.00 0.00 58 1014.6
20260508105923 17 209 1.6 3.2 0.00 0.00 0.00 58 1014.5
20260508104623 17 216 0.0 3.2 0.00 0.00 0.00 58 1014.3
20260508104205 17 219 1.6 3.2 0.00 0.00 0.00 58 1014.2
20260508103322 17 223 0.0 0.0 0.00 0.00 0.00 57 1014.1
20260508102024 17 236 3.2 3.2 0.00 0.00 0.00 56 1014.0
20260508101204 17 246 8.0 11.3 0.00 0.00 0.00 55 1013.9
20260508100723 17 233 8.0 14.5 0.00 0.00 0.00 55 1013.8
20260508095422 18 243 6.4 9.7 0.00 0.00 0.00 53 1013.7
20260508094205 18 195 4.8 6.4 0.00 0.00 0.00 52 1013.5
20260508094122 18 230 4.8 14.5 0.00 0.00 0.00 52 1013.5
20260508092822 19 231 6.4 9.7 0.00 0.00 0.00 51 1013.4